Вернуться в каталог

COSMOS 979

АктивенВоенныеLEO
NORAD 10586·PAYLOAD·🇷🇺 Russia

Запущен Jan 10, 1978 с Plesetsk Cosmodrome

Loading…

Ближайшие Пролёты (ближайшие 24 часа)

TLE

СвежийSource: Space-Track

Эпоха: Sep 14, 2026, 16:59 UTC

1 10586U 78005D   26257.70795162 -.00000029  00000-0 -78456-4 0  9996
2 10586  74.0297  58.5208 0017028 196.2360 174.9238 12.53501941218381

Отслеживайте COSMOS 979 в реальном времени с AllMySat

Download on the App Store